Terminal Aerodrome Forecast
Issued by NWS

Current Version | Previous Version | Graphics & Text | Print | Product List | Glossary On
Versions: 1 2 3 4 5 6 7 8 9 10 11 12 13 14 15 16 17 18 19 20 21 22 23 24 25 26 27 28 29 30
658
FTUS41 KPBZ 121006 AAB
TAFHLG
TAF AMD
KHLG 121006Z 1210/1306 25015G25KT P6SM OVC025
     FM121100 26011G22KT 5SM -SN OVC010
     FM121600 28014G30KT P6SM OVC025=

USA.gov is the U.S. government's official web portal to all federal, state and local government web resources and services.